This demonstration page uses our WeatherBlox Daily Observations layout. Learn more.

Left ArrowRight Arrow

53.62937, 11.41316

Hourly Observations for July 24, 2022

Temp ( °F °C ) Dew Point ( °F °C ) Humidity (%) Winds ( mph kmh ) Pressure ( in mb ) Visibility ( mi km ) Precip ( " mm )
12:20 am 00:20 Mostly Clear 54 12 50 10 88 88 VRB 2 4 30.12 1020 30 48 N/A
12:50 am 00:50 Mostly Clear 52 11 50 10 94 94 VRB 2 4 30.12 1020 30 48 N/A
1:20 am 01:20 Mostly Clear 52 11 48 9 88 88 VRB 2 4 30.12 1020 30 48 N/A
1:50 am 01:50 Mostly Clear 50 10 48 9 94 94 VRB 2 4 30.12 1020 30 48 N/A
2:20 am 02:20 Mostly Clear 52 11 50 10 94 94 VRB 2 4 30.12 1020 30 48 N/A
2:50 am 02:50 Mostly Clear 48 9 46 8 94 94 VRB 1 2 30.12 1020 30 48 N/A
3:20 am 03:20 Mostly Clear 48 9 46 8 94 94 VRB 1 2 30.12 1020 1 1 N/A
3:50 am 03:50 Mostly Clear 48 9 46 8 94 94 Calm 30.12 1020 1 1 N/A
4:20 am 04:20 Mostly Clear 48 9 46 8 94 94 Calm 30.12 1020 1 2 N/A
4:50 am 04:50 Partly Cloudy 48 9 48 9 100 100 VRB 1 2 30.12 1020 0 0 N/A
5:20 am 05:20 Partly Cloudy 48 9 46 8 94 94 Calm 30.12 1020 0 1 N/A
5:50 am 05:50 Mostly Sunny 48 9 46 8 94 94 Calm 30.12 1020 2 3 N/A
6:20 am 06:20 Mostly Sunny 48 9 48 9 100 100 VRB 2 4 30.12 1020 7 11 N/A
6:50 am 06:50 Mostly Sunny 54 12 52 11 94 94 VRB 1 2 30.12 1020 7 11 N/A
7:20 am 07:20 Mostly Sunny 55 13 54 12 94 94 VRB 2 4 30.12 1020 7 11 N/A
7:50 am 07:50 Mostly Sunny 57 14 52 11 82 82 S 3 6 30.12 1020 7 11 N/A
8:20 am 08:20 Mostly Sunny 61 16 52 11 72 72 VRB 5 7 30.12 1020 7 11 N/A
8:50 am 08:50 Mostly Sunny 63 17 52 11 68 68 VRB 5 7 30.12 1020 7 11 N/A
9:20 am 09:20 Mostly Sunny 64 18 52 11 64 64 SW 5 7 30.12 1020 7 11 N/A
9:50 am 09:50 Mostly Sunny 66 19 54 12 64 64 VRB 5 7 30.09 1019 7 11 N/A
10:20 am 10:20 Mostly Sunny 68 20 54 12 60 60 SSW 3 6 30.09 1019 7 11 N/A
10:50 am 10:50 Mostly Sunny 70 21 55 13 60 60 VRB 5 7 30.09 1019 7 11 N/A
11:20 am 11:20 Mostly Sunny 73 23 54 12 50 50 VRB 5 7 30.09 1019 7 11 N/A
11:50 am 11:50 Mostly Sunny 73 23 54 12 50 50 VRB 5 7 30.09 1019 7 11 N/A
12:20 pm 12:20 Mostly Sunny 77 25 57 14 51 51 VRB 6 9 30.09 1019 7 11 N/A
12:50 pm 12:50 Mostly Sunny 77 25 54 12 44 44 VRB 6 9 30.09 1019 7 11 N/A
1:20 pm 13:20 Mostly Sunny 77 25 54 12 44 44 W 7 11 30.06 1018 7 11 N/A
1:50 pm 13:50 Mostly Sunny 79 26 55 13 45 45 VRB 6 9 30.06 1018 30 48 N/A
2:20 pm 14:20 Mostly Sunny 79 26 55 13 45 45 VRB 6 9 30.03 1017 7 11 N/A
2:50 pm 14:50 Mostly Sunny 81 27 55 13 42 42 VRB 6 9 30.03 1017 7 11 N/A
3:20 pm 15:20 Mostly Sunny 81 27 55 13 42 42 VRB 6 9 30.03 1017 7 11 N/A
3:50 pm 15:50 Mostly Sunny 82 28 54 12 37 37 VRB 7 11 30.00 1016 7 11 N/A
4:20 pm 16:20 Mostly Sunny 82 28 55 13 40 40 VRB 6 9 30.00 1016 7 11 N/A
4:50 pm 16:50 Mostly Sunny 82 28 55 13 40 40 VRB 7 11 30.00 1016 7 11 N/A
5:20 pm 17:20 Mostly Sunny 84 29 55 13 37 37 VRB 7 11 29.97 1015 7 11 N/A
5:50 pm 17:50 Mostly Sunny 86 30 55 13 35 35 VRB 5 7 29.97 1015 7 11 N/A
6:20 pm 18:20 Mostly Sunny 82 28 55 13 40 40 VRB 6 9 29.97 1015 7 11 N/A
6:50 pm 18:50 Mostly Sunny 82 28 55 13 40 40 VRB 3 6 29.97 1015 7 11 N/A
7:20 pm 19:20 Mostly Sunny 82 28 55 13 40 40 VRB 3 6 29.94 1014 7 11 N/A
7:50 pm 19:50 Mostly Sunny 82 28 57 14 42 42 S 3 6 29.94 1014 7 11 N/A
8:20 pm 20:20 Mostly Sunny 81 27 57 14 45 45 VRB 2 4 29.94 1014 7 11 N/A
8:50 pm 20:50 Mostly Sunny 79 26 55 13 45 45 VRB 1 2 29.94 1014 7 11 N/A
9:20 pm 21:20 Mostly Sunny 75 24 59 15 57 57 VRB 2 4 29.94 1014 7 11 N/A
9:50 pm 21:50 Mostly Cloudy 73 23 57 14 57 57 VRB 1 2 29.94 1014 30 48 N/A
10:20 pm 22:20 Mostly Clear 70 21 57 14 64 64 SSE 1 2 29.94 1014 30 48 N/A
10:50 pm 22:50 Mostly Clear 70 21 59 15 69 69 SSE 1 2 29.94 1014 30 48 N/A
11:20 pm 23:20 Mostly Clear 66 19 59 15 78 78 VRB 1 2 29.94 1014 30 48 N/A
11:50 pm 23:50 Mostly Clear 66 19 61 16 83 83 Calm 29.94 1014 30 48 N/A

Powered by AerisWeather